Zurück zum Katalog

STARLINK-35621

AktivKommunikationVLEO
NORAD 66156·PAYLOAD·🇺🇸 United States

Gestartet Oct 25, 2025 von Cape Canaveral Space Force Station

Loading…

Nächste Überflüge (nächste 24 Stunden)

TLE

AktuellSource: CelesTrak SupGP

Epoche: Sep 15, 2026, 03:22 UTC

1 66156C 25240L   26258.14076389 -.00035035  00000+0 -10350-2 0  2584
2 66156  53.1575 260.5071 0001330  93.6465  30.2701 15.34412351    16

Verfolge STARLINK-35621 in Echtzeit mit AllMySat

Download on the App Store